| time (UTC) | temp F | wind direction | speed MPH | gust MPH | rain 1hr in | rain 24hr in | rain mn in | humidity % | barometer mb |
| 20260510073437 | 43 | 321 | 0.0 | 0.0 | 0.00 | 0.00 | 0.00 | 63 | 1017.7 |
| 20260510072934 | 43 | 321 | 0.0 | 0.0 | 0.00 | 0.00 | 0.00 | 61 | 1017.3 |
| 20260510072431 | 43 | 321 | 0.0 | 0.0 | 0.00 | 0.00 | 0.00 | 64 | 1017.1 |
| 20260510071926 | 43 | 321 | 0.0 | 0.0 | 0.00 | 0.00 | 0.00 | 62 | 1016.8 |
| 20260510071423 | 43 | 321 | 0.0 | 0.0 | 0.00 | 0.00 | 0.00 | 67 | 1016.9 |
| 20260510070921 | 43 | 321 | 0.0 | 0.0 | 0.00 | 0.00 | 0.00 | 67 | 1016.8 |
| 20260510070419 | 44 | 321 | 0.0 | 0.0 | 0.00 | 0.00 | 0.00 | 62 | 1016.9 |
| 20260510065914 | 44 | 321 | 0.0 | 0.0 | 0.00 | 0.00 | 0.00 | 61 | 1017.0 |
| 20260510065410 | 44 | 321 | 0.0 | 0.0 | 0.00 | 0.00 | 0.00 | 60 | 1017.0 |
| 20260510064907 | 43 | 321 | 0.0 | 0.0 | 0.00 | 0.00 | 0.00 | 61 | 1016.9 |
| 20260510064405 | 43 | 321 | 0.0 | 0.0 | 0.00 | 0.00 | 0.00 | 60 | 1017.0 |
| 20260510063901 | 43 | 321 | 0.0 | 0.0 | 0.00 | 0.00 | 0.00 | 59 | 1016.8 |
| 20260510063357 | 43 | 321 | 0.0 | 0.0 | 0.00 | 0.00 | 0.00 | 63 | 1016.5 |
| 20260510062854 | 43 | 321 | 0.0 | 0.0 | 0.00 | 0.00 | 0.00 | 63 | 1016.3 |
| 20260510062349 | 43 | 321 | 0.0 | 0.0 | 0.00 | 0.00 | 0.00 | 63 | 1016.1 |
| 20260510061845 | 43 | 321 | 0.0 | 0.0 | 0.00 | 0.00 | 0.00 | 65 | 1016.5 |
| 20260510061342 | 43 | 321 | 0.0 | 0.0 | 0.00 | 0.00 | 0.00 | 66 | 1016.5 |
| 20260510060838 | 44 | 321 | 0.0 | 0.0 | 0.00 | 0.00 | 0.00 | 66 | 1016.4 |
| 20260510060336 | 44 | 321 | 0.0 | 0.0 | 0.00 | 0.00 | 0.00 | 62 | 1016.3 |
| 20260510055832 | 44 | 321 | 0.0 | 0.0 | 0.00 | 0.00 | 0.00 | 64 | 1016.4 |
| 20260510055331 | 44 | 321 | 0.0 | 0.0 | 0.00 | 0.00 | 0.00 | 60 | 1016.4 |
| 20260510054831 | 44 | 321 | 0.0 | 0.0 | 0.00 | 0.00 | 0.00 | 62 | 1016.3 |
| 20260510054326 | 45 | 321 | 0.0 | 0.0 | 0.00 | 0.00 | 0.00 | 62 | 1016.1 |
| 20260510053821 | 45 | 321 | 0.0 | 0.0 | 0.00 | 0.00 | 0.00 | 58 | 1016.0 |
| 20260510053317 | 45 | 321 | 0.0 | 0.0 | 0.00 | 0.00 | 0.00 | 57 | 1016.1 |
| 20260510052814 | 45 | 321 | 0.0 | 0.0 | 0.00 | 0.00 | 0.00 | 58 | 1016.0 |
| 20260510052310 | 45 | 321 | 0.0 | 0.0 | 0.00 | 0.00 | 0.00 | 62 | 1015.8 |
| 20260510051806 | 46 | 321 | 0.0 | 0.0 | 0.00 | 0.00 | 0.00 | 59 | 1015.7 |
| 20260510051303 | 46 | 321 | 0.0 | 0.0 | 0.00 | 0.00 | 0.00 | 54 | 1015.6 |
| 20260510050800 | 46 | 321 | 0.0 | 0.0 | 0.00 | 0.00 | 0.00 | 58 | 1015.7 |
| 20260510050257 | 47 | 321 | 0.0 | 0.0 | 0.00 | 0.00 | 0.00 | 52 | 1015.6 |
| 20260510045754 | 46 | 321 | 0.0 | 0.0 | 0.00 | 0.00 | 0.00 | 51 | 1015.5 |
| 20260510045250 | 47 | 321 | 0.0 | 0.0 | 0.00 | 0.00 | 0.00 | 53 | 1015.3 |
| 20260510044747 | 47 | 321 | 0.0 | 0.0 | 0.00 | 0.00 | 0.00 | 53 | 1015.3 |
| 20260510044245 | 47 | 321 | 0.0 | 0.0 | 0.00 | 0.00 | 0.00 | 55 | 1015.2 |
| 20260510043740 | 47 | 321 | 0.0 | 0.0 | 0.00 | 0.00 | 0.00 | 55 | 1015.3 |
| 20260510043237 | 48 | 321 | 0.0 | 0.0 | 0.00 | 0.00 | 0.00 | 56 | 1015.4 |
| 20260510042734 | 48 | 321 | 0.0 | 1.0 | 0.00 | 0.00 | 0.00 | 54 | 1015.4 |
| 20260510042229 | 48 | 321 | 0.0 | 0.0 | 0.00 | 0.00 | 0.00 | 52 | 1014.9 |
| 20260510041727 | 48 | 321 | 0.0 | 0.0 | 0.00 | 0.00 | 0.00 | 54 | 1015.1 |
| 20260510041224 | 49 | 321 | 0.0 | 0.0 | 0.00 | 0.00 | 0.00 | 55 | 1015.0 |
| 20260510040721 | 49 | 321 | 0.0 | 1.0 | 0.00 | 0.00 | 0.00 | 51 | 1014.9 |
| 20260510040218 | 50 | 321 | 0.0 | 1.0 | 0.00 | 0.00 | 0.00 | 55 | 1015.0 |
| 20260510035713 | 50 | 321 | 0.0 | 0.0 | 0.00 | 0.00 | 0.00 | 51 | 1014.8 |
| 20260510035209 | 50 | 321 | 0.0 | 0.0 | 0.00 | 0.00 | 0.00 | 50 | 1014.9 |
| 20260510034705 | 51 | 321 | 0.0 | 0.0 | 0.00 | 0.00 | 0.00 | 49 | 1014.8 |
| 20260510034203 | 51 | 321 | 0.0 | 0.0 | 0.00 | 0.00 | 0.00 | 47 | 1014.8 |
| 20260510033659 | 51 | 321 | 0.0 | 0.0 | 0.00 | 0.00 | 0.00 | 45 | 1014.5 |
| 20260510033157 | 51 | 321 | 0.0 | 0.0 | 0.00 | 0.00 | 0.00 | 47 | 1014.4 |
| 20260510032653 | 51 | 322 | 0.0 | 0.0 | 0.00 | 0.00 | 0.00 | 44 | 1014.5 |
| 20260510032149 | 51 | 322 | 0.0 | 0.0 | 0.00 | 0.00 | 0.00 | 45 | 1014.4 |
| 20260510031644 | 52 | 323 | 0.0 | 0.0 | 0.00 | 0.00 | 0.00 | 46 | 1014.2 |
| 20260510031141 | 52 | 323 | 0.0 | 0.0 | 0.00 | 0.00 | 0.00 | 45 | 1014.0 |
| 20260510030641 | 52 | 323 | 0.0 | 0.0 | 0.00 | 0.00 | 0.00 | 45 | 1014.0 |
| 20260510030139 | 53 | 323 | 0.0 | 0.0 | 0.00 | 0.00 | 0.00 | 42 | 1013.9 |
| 20260510025636 | 53 | 323 | 0.0 | 0.0 | 0.00 | 0.00 | 0.00 | 42 | 1013.8 |
| 20260510025133 | 53 | 323 | 0.0 | 1.0 | 0.00 | 0.00 | 0.00 | 42 | 1013.8 |
| 20260510024630 | 54 | 322 | 1.0 | 1.0 | 0.00 | 0.00 | 0.00 | 42 | 1013.7 |
| 20260510024126 | 54 | 321 | 0.0 | 1.0 | 0.00 | 0.00 | 0.00 | 44 | 1013.4 |
| 20260510023622 | 55 | 322 | 0.0 | 1.0 | 0.00 | 0.00 | 0.00 | 41 | 1013.5 |
| 20260510023120 | 55 | 322 | 0.0 | 0.0 | 0.00 | 0.00 | 0.00 | 38 | 1013.2 |
| 20260510022619 | 56 | 321 | 0.0 | 0.0 | 0.00 | 0.00 | 0.00 | 38 | 1013.0 |
| 20260510022114 | 56 | 320 | 0.0 | 0.0 | 0.00 | 0.00 | 0.00 | 38 | 1012.9 |
| 20260510021610 | 57 | 316 | 0.0 | 0.0 | 0.00 | 0.00 | 0.00 | 36 | 1012.8 |
| 20260510021108 | 57 | 320 | 0.0 | 0.0 | 0.00 | 0.00 | 0.00 | 38 | 1012.8 |
| 20260510020602 | 57 | 319 | 0.0 | 0.0 | 0.00 | 0.00 | 0.00 | 40 | 1012.7 |
| 20260510020058 | 57 | 316 | 0.0 | 0.0 | 0.00 | 0.00 | 0.00 | 37 | 1012.7 |
| 20260510015554 | 57 | 313 | 2.0 | 2.0 | 0.00 | 0.00 | 0.00 | 37 | 1012.5 |
| 20260510015050 | 58 | 315 | 0.0 | 0.0 | 0.00 | 0.00 | 0.00 | 38 | 1012.5 |
| 20260510014546 | 59 | 313 | 0.0 | 0.0 | 0.00 | 0.00 | 0.00 | 37 | 1012.3 |
| 20260510014044 | 60 | 311 | 0.0 | 0.0 | 0.00 | 0.00 | 0.00 | 36 | 1012.3 |
| 20260510013538 | 60 | 303 | 2.0 | 3.0 | 0.00 | 0.00 | 0.00 | 34 | 1012.2 |
| 20260510013034 | 61 | 315 | 0.0 | 1.0 | 0.00 | 0.00 | 0.00 | 34 | 1012.0 |
| 20260510012528 | 61 | 316 | 2.0 | 3.0 | 0.00 | 0.00 | 0.00 | 33 | 1011.9 |
| 20260510012025 | 61 | 311 | 1.0 | 2.0 | 0.00 | 0.00 | 0.00 | 33 | 1011.8 |
| 20260510011524 | 62 | 313 | 0.0 | 0.0 | 0.00 | 0.00 | 0.00 | 34 | 1011.7 |
| 20260510011020 | 62 | 314 | 1.0 | 1.0 | 0.00 | 0.00 | 0.00 | 32 | 1011.9 |
| 20260510010518 | 63 | 317 | 1.0 | 2.0 | 0.00 | 0.00 | 0.00 | 31 | 1011.6 |
| 20260510010015 | 63 | 315 | 1.0 | 1.0 | 0.00 | 0.00 | 0.00 | 32 | 1011.5 |
| 20260510005510 | 64 | 311 | 1.0 | 2.0 | 0.00 | 0.00 | 0.00 | 31 | 1011.4 |
| 20260510005008 | 64 | 332 | 4.0 | 5.0 | 0.00 | 0.00 | 0.00 | 30 | 1011.2 |
| 20260510004505 | 65 | 313 | 1.0 | 1.0 | 0.00 | 0.00 | 0.00 | 30 | 1011.2 |
| 20260510004003 | 65 | 312 | 2.0 | 3.0 | 0.00 | 0.00 | 0.00 | 30 | 1010.9 |
| 20260510003459 | 65 | 297 | 2.0 | 2.0 | 0.00 | 0.00 | 0.00 | 29 | 1011.0 |
| 20260510002955 | 66 | 313 | 1.0 | 2.0 | 0.00 | 0.00 | 0.00 | 30 | 1010.8 |
| 20260510002451 | 66 | 316 | 2.0 | 2.0 | 0.00 | 0.00 | 0.00 | 30 | 1010.9 |
| 20260510001948 | 66 | 286 | 2.0 | 3.0 | 0.00 | 0.00 | 0.00 | 28 | 1010.8 |
| 20260510001445 | 67 | 310 | 2.0 | 2.0 | 0.00 | 0.00 | 0.00 | 31 | 1010.4 |
| 20260510000943 | 67 | 288 | 2.0 | 2.0 | 0.00 | 0.00 | 0.00 | 30 | 1010.5 |
| 20260510000440 | 67 | 300 | 2.0 | 2.0 | 0.00 | 0.00 | 0.00 | 29 | 1010.5 |
| 20260509235935 | 67 | 2 | 2.0 | 2.0 | 0.00 | 0.00 | 0.00 | 29 | 1010.4 |
| 20260509235432 | 68 | 294 | 2.0 | 3.0 | 0.00 | 0.00 | 0.00 | 29 | 1010.5 |
| 20260509234928 | 68 | 295 | 2.0 | 2.0 | 0.00 | 0.00 | 0.00 | 29 | 1010.5 |
| 20260509234425 | 69 | 341 | 3.0 | 3.0 | 0.00 | 0.00 | 0.00 | 28 | 1010.2 |
| 20260509233923 | 69 | 323 | 1.0 | 1.0 | 0.00 | 0.00 | 0.00 | 28 | 1010.3 |
| 20260509233420 | 68 | 351 | 5.0 | 6.0 | 0.00 | 0.00 | 0.00 | 27 | 1010.2 |
| 20260509232916 | 68 | 320 | 2.0 | 2.0 | 0.00 | 0.00 | 0.00 | 28 | 1010.3 |
| 20260509232414 | 68 | 313 | 5.0 | 7.0 | 0.00 | 0.00 | 0.00 | 28 | 1010.3 |
| 20260509231909 | 68 | 315 | 2.0 | 2.0 | 0.00 | 0.00 | 0.00 | 33 | 1010.3 |
| 20260509231406 | 69 | 308 | 1.0 | 2.0 | 0.00 | 0.00 | 0.00 | 33 | 1010.2 |
| 20260509230905 | 69 | 281 | 1.0 | 2.0 | 0.00 | 0.00 | 0.00 | 32 | 1010.0 |
| 20260509230401 | 69 | 303 | 2.0 | 2.0 | 0.00 | 0.00 | 0.00 | 29 | 1009.8 |
| 20260509225857 | 70 | 304 | 2.0 | 2.0 | 0.00 | 0.00 | 0.00 | 31 | 1009.7 |
| 20260509225354 | 71 | 327 | 4.0 | 5.0 | 0.00 | 0.00 | 0.00 | 30 | 1009.8 |
| 20260509224849 | 71 | 302 | 3.0 | 5.0 | 0.00 | 0.00 | 0.00 | 29 | 1009.6 |
| 20260509224346 | 71 | 307 | 1.0 | 2.0 | 0.00 | 0.00 | 0.00 | 32 | 1009.4 |
| 20260509223843 | 70 | 13 | 3.0 | 5.0 | 0.00 | 0.00 | 0.00 | 29 | 1009.5 |
| 20260509223339 | 70 | 293 | 2.0 | 2.0 | 0.00 | 0.00 | 0.00 | 29 | 1009.3 |
| 20260509222837 | 70 | 305 | 2.0 | 3.0 | 0.00 | 0.00 | 0.00 | 30 | 1009.2 |
| 20260509222332 | 70 | 305 | 2.0 | 2.0 | 0.00 | 0.00 | 0.00 | 31 | 1009.2 |
| 20260509221827 | 70 | 307 | 4.0 | 6.0 | 0.00 | 0.00 | 0.00 | 32 | 1009.1 |
| 20260509221325 | 70 | 301 | 2.0 | 2.0 | 0.00 | 0.00 | 0.00 | 34 | 1009.1 |
| 20260509220825 | 71 | 308 | 1.0 | 1.0 | 0.00 | 0.00 | 0.00 | 34 | 1009.3 |
| 20260509220321 | 71 | 286 | 2.0 | 2.0 | 0.00 | 0.00 | 0.00 | 35 | 1009.0 |
| 20260509215817 | 71 | 353 | 4.0 | 8.0 | 0.00 | 0.00 | 0.00 | 32 | 1009.2 |
| 20260509215314 | 70 | 303 | 3.0 | 3.0 | 0.00 | 0.00 | 0.00 | 35 | 1009.0 |
| 20260509214811 | 70 | 299 | 3.0 | 3.0 | 0.00 | 0.00 | 0.00 | 35 | 1009.1 |
| 20260509214308 | 71 | 331 | 4.0 | 8.0 | 0.00 | 0.00 | 0.00 | 35 | 1008.9 |
| 20260509213805 | 71 | 314 | 3.0 | 3.0 | 0.00 | 0.00 | 0.00 | 37 | 1009.0 |
| 20260509213301 | 70 | 299 | 2.0 | 2.0 | 0.00 | 0.00 | 0.00 | 35 | 1008.7 |
| 20260509212758 | 70 | 219 | 6.0 | 8.0 | 0.00 | 0.00 | 0.00 | 38 | 1008.8 |
| 20260509212255 | 70 | 295 | 2.0 | 3.0 | 0.00 | 0.00 | 0.00 | 43 | 1008.8 |
| 20260509211751 | 70 | 251 | 2.0 | 3.0 | 0.00 | 0.00 | 0.00 | 44 | 1008.7 |
| 20260509211248 | 70 | 314 | 5.0 | 9.0 | 0.00 | 0.00 | 0.00 | 42 | 1008.8 |
| 20260509210744 | 69 | 308 | 1.0 | 2.0 | 0.00 | 0.00 | 0.00 | 45 | 1009.1 |
| 20260509210242 | 70 | 286 | 1.0 | 2.0 | 0.00 | 0.00 | 0.00 | 49 | 1008.9 |
| 20260509205741 | 69 | 306 | 5.0 | 7.0 | 0.00 | 0.00 | 0.00 | 43 | 1008.9 |
| 20260509205236 | 70 | 281 | 2.0 | 3.0 | 0.00 | 0.00 | 0.00 | 45 | 1008.8 |
| 20260509204732 | 69 | 305 | 0.0 | 1.0 | 0.00 | 0.00 | 0.00 | 46 | 1008.8 |
| 20260509204229 | 69 | 291 | 2.0 | 2.0 | 0.00 | 0.00 | 0.00 | 45 | 1009.0 |
| 20260509203725 | 69 | 295 | 2.0 | 2.0 | 0.00 | 0.00 | 0.00 | 47 | 1009.0 |
| 20260509203223 | 68 | 336 | 2.0 | 2.0 | 0.00 | 0.00 | 0.00 | 48 | 1009.0 |
| 20260509202719 | 67 | 284 | 3.0 | 3.0 | 0.00 | 0.00 | 0.00 | 48 | 1009.1 |
| 20260509202214 | 67 | 320 | 2.0 | 2.0 | 0.00 | 0.00 | 0.00 | 48 | 1009.2 |
| 20260509201709 | 68 | 336 | 3.0 | 5.0 | 0.00 | 0.00 | 0.00 | 49 | 1008.9 |
| 20260509201206 | 68 | 309 | 2.0 | 2.0 | 0.00 | 0.00 | 0.00 | 49 | 1009.0 |
| 20260509200703 | 69 | 281 | 6.0 | 7.0 | 0.00 | 0.00 | 0.00 | 47 | 1009.1 |
| 20260509200157 | 68 | 301 | 2.0 | 2.0 | 0.00 | 0.00 | 0.00 | 48 | 1008.9 |
| 20260509195654 | 68 | 315 | 2.0 | 2.0 | 0.00 | 0.00 | 0.00 | 49 | 1009.0 |
| 20260509195149 | 68 | 307 | 1.0 | 2.0 | 0.00 | 0.00 | 0.00 | 50 | 1008.9 |
| 20260509194643 | 68 | 280 | 3.0 | 3.0 | 0.00 | 0.00 | 0.00 | 50 | 1008.7 |
| 20260509194140 | 68 | 329 | 1.0 | 1.0 | 0.00 | 0.00 | 0.00 | 48 | 1008.9 |
| 20260509193636 | 70 | 326 | 3.0 | 5.0 | 0.00 | 0.00 | 0.00 | 45 | 1008.7 |
| 20260509193132 | 71 | 301 | 3.0 | 3.0 | 0.00 | 0.00 | 0.00 | 47 | 1008.7 |
| 20260509192629 | 69 | 290 | 2.0 | 2.0 | 0.00 | 0.00 | 0.00 | 51 | 1008.7 |
| 20260509192123 | 69 | 266 | 2.0 | 2.0 | 0.00 | 0.00 | 0.00 | 46 | 1008.8 |
| 20260509191618 | 71 | 259 | 3.0 | 3.0 | 0.00 | 0.00 | 0.00 | 45 | 1008.6 |
| 20260509191115 | 70 | 298 | 3.0 | 3.0 | 0.00 | 0.00 | 0.00 | 44 | 1008.4 |
| 20260509190611 | 70 | 309 | 3.0 | 3.0 | 0.00 | 0.00 | 0.00 | 45 | 1008.7 |
| 20260509190109 | 70 | 315 | 4.0 | 6.0 | 0.00 | 0.00 | 0.00 | 44 | 1008.4 |
| 20260509185606 | 69 | 287 | 1.0 | 2.0 | 0.00 | 0.00 | 0.00 | 46 | 1008.3 |
| 20260509185102 | 69 | 313 | 5.0 | 7.0 | 0.00 | 0.00 | 0.00 | 44 | 1008.2 |
| 20260509184601 | 69 | 305 | 2.0 | 2.0 | 0.00 | 0.00 | 0.00 | 45 | 1008.3 |
| 20260509184057 | 69 | 309 | 3.0 | 6.0 | 0.00 | 0.00 | 0.00 | 43 | 1008.1 |
| 20260509183552 | 69 | 324 | 5.0 | 7.0 | 0.00 | 0.00 | 0.00 | 42 | 1008.2 |
| 20260509183048 | 68 | 307 | 3.0 | 3.0 | 0.00 | 0.00 | 0.00 | 42 | 1008.1 |
| 20260509182545 | 69 | 294 | 4.0 | 5.0 | 0.00 | 0.00 | 0.00 | 41 | 1007.7 |
| 20260509182042 | 69 | 317 | 1.0 | 1.0 | 0.00 | 0.00 | 0.00 | 40 | 1007.8 |
| 20260509181540 | 69 | 272 | 1.0 | 2.0 | 0.00 | 0.00 | 0.00 | 43 | 1007.9 |
| 20260509181037 | 69 | 245 | 3.0 | 5.0 | 0.00 | 0.00 | 0.00 | 37 | 1007.9 |
| 20260509180532 | 70 | 288 | 2.0 | 2.0 | 0.00 | 0.00 | 0.00 | 35 | 1007.7 |
| 20260509180030 | 70 | 246 | 3.0 | 6.0 | 0.00 | 0.00 | 0.00 | 37 | 1007.8 |
| 20260509175526 | 69 | 326 | 1.0 | 1.0 | 0.00 | 0.00 | 0.00 | 35 | 1008.0 |
| 20260509175023 | 69 | 289 | 2.0 | 2.0 | 0.00 | 0.00 | 0.00 | 36 | 1007.9 |
| 20260509174519 | 69 | 310 | 2.0 | 2.0 | 0.00 | 0.00 | 0.00 | 35 | 1008.0 |
| 20260509174014 | 70 | 328 | 2.0 | 2.0 | 0.00 | 0.00 | 0.00 | 36 | 1008.0 |
| 20260509173509 | 71 | 300 | 1.0 | 1.0 | 0.00 | 0.00 | 0.00 | 38 | 1007.6 |
| 20260509173005 | 73 | 315 | 5.0 | 6.0 | 0.00 | 0.00 | 0.00 | 31 | 1007.8 |
| 20260509172503 | 72 | 241 | 5.0 | 6.0 | 0.00 | 0.00 | 0.00 | 34 | 1007.7 |
| 20260509171958 | 72 | 319 | 2.0 | 2.0 | 0.00 | 0.00 | 0.00 | 36 | 1007.7 |
| 20260509171454 | 72 | 320 | 2.0 | 2.0 | 0.00 | 0.00 | 0.00 | 32 | 1007.8 |
| 20260509170951 | 73 | 224 | 3.0 | 3.0 | 0.00 | 0.00 | 0.00 | 29 | 1007.3 |
| 20260509170446 | 71 | 302 | 1.0 | 2.0 | 0.00 | 0.00 | 0.00 | 30 | 1007.3 |
| 20260509165942 | 71 | 306 | 4.0 | 7.0 | 0.00 | 0.00 | 0.00 | 29 | 1007.4 |
| 20260509165442 | 71 | 301 | 2.0 | 2.0 | 0.00 | 0.00 | 0.00 | 28 | 1007.3 |
| 20260509164937 | 71 | 343 | 4.0 | 6.0 | 0.00 | 0.00 | 0.00 | 29 | 1007.2 |
| 20260509164434 | 72 | 352 | 5.0 | 7.0 | 0.00 | 0.00 | 0.00 | 29 | 1007.2 |
| 20260509163929 | 71 | 293 | 3.0 | 5.0 | 0.00 | 0.00 | 0.00 | 29 | 1007.6 |
| 20260509163427 | 70 | 236 | 8.0 | 13.0 | 0.00 | 0.00 | 0.00 | 30 | 1007.3 |
| 20260509162926 | 69 | 347 | 6.0 | 7.0 | 0.00 | 0.00 | 0.00 | 30 | 1007.6 |
| 20260509162425 | 69 | 292 | 1.0 | 1.0 | 0.00 | 0.00 | 0.00 | 31 | 1008.0 |
| 20260509161921 | 70 | 303 | 4.0 | 5.0 | 0.00 | 0.00 | 0.00 | 33 | 1007.7 |
| 20260509161417 | 70 | 281 | 5.0 | 7.0 | 0.00 | 0.00 | 0.00 | 30 | 1007.6 |
| 20260509160913 | 69 | 311 | 2.0 | 2.0 | 0.00 | 0.00 | 0.00 | 31 | 1007.7 |
| 20260509160408 | 68 | 327 | 1.0 | 2.0 | 0.00 | 0.00 | 0.00 | 35 | 1007.9 |
| 20260509155903 | 68 | 258 | 3.0 | 5.0 | 0.00 | 0.00 | 0.00 | 33 | 1007.9 |
| 20260509155401 | 68 | 228 | 6.0 | 7.0 | 0.00 | 0.00 | 0.00 | 32 | 1007.7 |
| 20260509154857 | 68 | 305 | 3.0 | 5.0 | 0.00 | 0.00 | 0.00 | 32 | 1007.9 |
| 20260509154353 | 68 | 352 | 4.0 | 6.0 | 0.00 | 0.00 | 0.00 | 33 | 1007.9 |
| 20260509153850 | 68 | 264 | 4.0 | 6.0 | 0.00 | 0.00 | 0.00 | 32 | 1007.7 |
| 20260509153347 | 69 | 206 | 8.0 | 10.0 | 0.00 | 0.00 | 0.00 | 32 | 1007.8 |
| 20260509152844 | 68 | 318 | 2.0 | 2.0 | 0.00 | 0.00 | 0.00 | 32 | 1007.9 |
| 20260509152340 | 68 | 299 | 3.0 | 3.0 | 0.00 | 0.00 | 0.00 | 34 | 1007.8 |
| 20260509151838 | 67 | 251 | 2.0 | 2.0 | 0.00 | 0.00 | 0.00 | 35 | 1007.8 |
| 20260509151333 | 67 | 347 | 4.0 | 5.0 | 0.00 | 0.00 | 0.00 | 32 | 1007.6 |
| 20260509150832 | 67 | 325 | 3.0 | 3.0 | 0.00 | 0.00 | 0.00 | 34 | 1007.8 |
| 20260509150329 | 67 | 322 | 2.0 | 3.0 | 0.00 | 0.00 | 0.00 | 34 | 1007.6 |
| 20260509145826 | 67 | 282 | 3.0 | 5.0 | 0.00 | 0.00 | 0.00 | 33 | 1007.2 |
| 20260509145321 | 66 | 305 | 3.0 | 3.0 | 0.00 | 0.00 | 0.00 | 33 | 1007.7 |
| 20260509144818 | 65 | 305 | 4.0 | 7.0 | 0.00 | 0.00 | 0.00 | 34 | 1007.4 |
| 20260509144315 | 66 | 313 | 2.0 | 3.0 | 0.00 | 0.00 | 0.00 | 36 | 1007.3 |
| 20260509143812 | 66 | 342 | 2.0 | 2.0 | 0.00 | 0.00 | 0.00 | 35 | 1007.1 |
| 20260509143309 | 65 | 280 | 3.0 | 7.0 | 0.00 | 0.00 | 0.00 | 34 | 1007.3 |
| 20260509142806 | 65 | 275 | 3.0 | 5.0 | 0.00 | 0.00 | 0.00 | 35 | 1007.4 |
| 20260509142302 | 64 | 300 | 10.0 | 13.0 | 0.00 | 0.00 | 0.00 | 34 | 1007.6 |
| 20260509141757 | 64 | 353 | 5.0 | 7.0 | 0.00 | 0.00 | 0.00 | 37 | 1007.6 |
| 20260509141255 | 64 | 324 | 6.0 | 8.0 | 0.00 | 0.00 | 0.00 | 37 | 1007.6 |
| 20260509140751 | 64 | 351 | 3.0 | 3.0 | 0.00 | 0.00 | 0.00 | 41 | 1007.4 |
| 20260509140248 | 65 | 305 | 1.0 | 1.0 | 0.00 | 0.00 | 0.00 | 38 | 1007.2 |
| 20260509135746 | 65 | 311 | 4.0 | 6.0 | 0.00 | 0.00 | 0.00 | 37 | 1007.1 |
| 20260509135244 | 64 | 269 | 3.0 | 3.0 | 0.00 | 0.00 | 0.00 | 37 | 1006.4 |
| 20260509134740 | 64 | 277 | 2.0 | 3.0 | 0.00 | 0.00 | 0.00 | 42 | 1006.1 |
| 20260509134238 | 63 | 250 | 2.0 | 2.0 | 0.00 | 0.00 | 0.00 | 44 | 1006.2 |
| 20260509133735 | 62 | 276 | 1.0 | 2.0 | 0.00 | 0.00 | 0.00 | 43 | 1006.3 |
| 20260509133231 | 61 | 232 | 4.0 | 5.0 | 0.00 | 0.00 | 0.00 | 44 | 1006.0 |
| 20260509132730 | 60 | 294 | 1.0 | 1.0 | 0.00 | 0.00 | 0.00 | 48 | 1006.0 |
| 20260509132228 | 59 | 286 | 1.0 | 2.0 | 0.00 | 0.00 | 0.00 | 49 | 1006.0 |
| 20260509131725 | 59 | 287 | 1.0 | 2.0 | 0.00 | 0.00 | 0.00 | 50 | 1005.7 |
| 20260509131221 | 57 | 277 | 1.0 | 1.0 | 0.00 | 0.00 | 0.00 | 52 | 1005.8 |
| 20260509130717 | 56 | 286 | 2.0 | 2.0 | 0.00 | 0.00 | 0.00 | 54 | 1005.9 |
| 20260509130213 | 55 | 305 | 1.0 | 2.0 | 0.00 | 0.00 | 0.00 | 57 | 1006.0 |
| 20260509125710 | 54 | 291 | 2.0 | 2.0 | 0.00 | 0.00 | 0.00 | 57 | 1005.9 |
| 20260509125207 | 53 | 320 | 0.0 | 1.0 | 0.00 | 0.00 | 0.00 | 59 | 1005.9 |
| 20260509124703 | 52 | 320 | 0.0 | 1.0 | 0.00 | 0.00 | 0.00 | 60 | 1005.8 |
| 20260509124200 | 51 | 320 | 0.0 | 0.0 | 0.00 | 0.00 | 0.00 | 62 | 1005.9 |
| 20260509123659 | 50 | 320 | 0.0 | 0.0 | 0.00 | 0.00 | 0.00 | 65 | 1006.1 |
| 20260509123155 | 50 | 320 | 0.0 | 0.0 | 0.00 | 0.00 | 0.00 | 66 | 1006.0 |
| 20260509122650 | 49 | 320 | 0.0 | 1.0 | 0.00 | 0.00 | 0.00 | 66 | 1005.8 |
| 20260509122148 | 49 | 320 | 0.0 | 1.0 | 0.00 | 0.00 | 0.00 | 66 | 1005.7 |
| 20260509121644 | 48 | 320 | 0.0 | 1.0 | 0.00 | 0.00 | 0.00 | 66 | 1005.8 |
| 20260509121142 | 48 | 320 | 0.0 | 0.0 | 0.00 | 0.00 | 0.00 | 67 | 1005.6 |
| 20260509120640 | 49 | 320 | 0.0 | 1.0 | 0.00 | 0.00 | 0.00 | 66 | 1005.5 |
| 20260509120138 | 48 | 319 | 1.0 | 1.0 | 0.00 | 0.00 | 0.00 | 66 | 1005.7 |
| 20260509115635 | 48 | 319 | 1.0 | 1.0 | 0.00 | 0.00 | 0.00 | 67 | 1005.9 |
| 20260509115133 | 47 | 319 | 1.0 | 1.0 | 0.00 | 0.00 | 0.00 | 69 | 1005.5 |
| 20260509114631 | 47 | 319 | 1.0 | 1.0 | 0.00 | 0.00 | 0.00 | 70 | 1005.4 |
| 20260509114129 | 47 | 319 | 1.0 | 1.0 | 0.00 | 0.00 | 0.00 | 72 | 1005.5 |
| 20260509113627 | 46 | 319 | 1.0 | 1.0 | 0.00 | 0.00 | 0.00 | 73 | 1005.3 |
| 20260509113124 | 46 | 319 | 0.0 | 0.0 | 0.00 | 0.00 | 0.00 | 75 | 1005.7 |
| 20260509112620 | 45 | 319 | 0.0 | 1.0 | 0.00 | 0.00 | 0.00 | 77 | 1005.5 |
| 20260509112118 | 44 | 319 | 0.0 | 0.0 | 0.00 | 0.00 | 0.00 | 85 | 1005.5 |
| 20260509111615 | 43 | 318 | 0.0 | 0.0 | 0.00 | 0.00 | 0.00 | 91 | 1005.3 |
| 20260509111112 | 42 | 319 | 0.0 | 0.0 | 0.00 | 0.00 | 0.00 | 91 | 1005.4 |
| 20260509110609 | 43 | 319 | 0.0 | 0.0 | 0.00 | 0.00 | 0.00 | 90 | 1005.1 |
| 20260509110106 | 43 | 319 | 0.0 | 0.0 | 0.00 | 0.00 | 0.00 | 89 | 1004.8 |
| 20260509105604 | 43 | 318 | 0.0 | 0.0 | 0.00 | 0.00 | 0.00 | 90 | 1005.0 |
| 20260509105101 | 43 | 319 | 0.0 | 0.0 | 0.00 | 0.00 | 0.00 | 90 | 1005.1 |
| 20260509104558 | 43 | 319 | 0.0 | 0.0 | 0.00 | 0.00 | 0.00 | 89 | 1005.1 |
| 20260509104055 | 42 | 318 | 0.0 | 0.0 | 0.00 | 0.00 | 0.00 | 91 | 1005.0 |
| 20260509103553 | 43 | 319 | 0.0 | 0.0 | 0.00 | 0.00 | 0.00 | 90 | 1005.1 |
| 20260509103051 | 43 | 319 | 0.0 | 0.0 | 0.00 | 0.00 | 0.00 | 89 | 1005.0 |
| 20260509102548 | 43 | 319 | 0.0 | 0.0 | 0.00 | 0.00 | 0.00 | 90 | 1005.0 |
| 20260509102045 | 43 | 319 | 0.0 | 0.0 | 0.00 | 0.00 | 0.00 | 89 | 1005.0 |
| 20260509101541 | 43 | 319 | 0.0 | 0.0 | 0.00 | 0.00 | 0.00 | 88 | 1005.1 |
| 20260509101038 | 43 | 319 | 0.0 | 0.0 | 0.00 | 0.00 | 0.00 | 87 | 1005.0 |
| 20260509100535 | 44 | 319 | 0.0 | 0.0 | 0.00 | 0.00 | 0.00 | 86 | 1005.0 |
| 20260509100033 | 44 | 319 | 0.0 | 0.0 | 0.00 | 0.00 | 0.00 | 86 | 1005.4 |
| 20260509095529 | 45 | 319 | 0.0 | 0.0 | 0.00 | 0.00 | 0.00 | 85 | 1005.2 |
| 20260509095026 | 46 | 319 | 0.0 | 0.0 | 0.00 | 0.00 | 0.00 | 84 | 1005.3 |
| 20260509094522 | 45 | 319 | 1.0 | 2.0 | 0.00 | 0.00 | 0.00 | 84 | 1005.2 |
| 20260509094020 | 44 | 319 | 0.0 | 0.0 | 0.00 | 0.00 | 0.00 | 90 | 1005.3 |
| 20260509093518 | 44 | 319 | 0.0 | 0.0 | 0.00 | 0.00 | 0.00 | 92 | 1005.3 |
| 20260509093015 | 44 | 319 | 0.0 | 0.0 | 0.00 | 0.00 | 0.00 | 92 | 1005.2 |
| 20260509092513 | 45 | 319 | 0.0 | 0.0 | 0.00 | 0.00 | 0.00 | 91 | 1005.3 |
| 20260509092012 | 45 | 319 | 0.0 | 0.0 | 0.00 | 0.00 | 0.00 | 91 | 1005.3 |
| 20260509091508 | 44 | 319 | 0.0 | 0.0 | 0.00 | 0.00 | 0.00 | 91 | 1005.4 |
| 20260509091005 | 45 | 319 | 0.0 | 0.0 | 0.00 | 0.00 | 0.00 | 91 | 1005.5 |
| 20260509090502 | 46 | 319 | 0.0 | 0.0 | 0.00 | 0.00 | 0.00 | 90 | 1005.5 |
| 20260509090000 | 45 | 319 | 0.0 | 0.0 | 0.00 | 0.00 | 0.00 | 92 | 1005.3 |
| 20260509085457 | 45 | 319 | 0.0 | 0.0 | 0.00 | 0.00 | 0.00 | 91 | 1005.2 |
| 20260509084953 | 45 | 319 | 0.0 | 0.0 | 0.00 | 0.00 | 0.00 | 91 | 1005.2 |
| 20260509084450 | 45 | 319 | 0.0 | 0.0 | 0.00 | 0.00 | 0.00 | 91 | 1005.3 |
| 20260509083947 | 46 | 319 | 0.0 | 0.0 | 0.00 | 0.00 | 0.00 | 91 | 1005.2 |
| 20260509083444 | 45 | 319 | 0.0 | 0.0 | 0.00 | 0.00 | 0.00 | 90 | 1005.3 |
| 20260509082941 | 46 | 319 | 0.0 | 0.0 | 0.00 | 0.00 | 0.00 | 89 | 1005.3 |
| 20260509082438 | 46 | 319 | 0.0 | 0.0 | 0.00 | 0.00 | 0.00 | 88 | 1005.0 |
| 20260509081935 | 46 | 319 | 0.0 | 0.0 | 0.00 | 0.00 | 0.00 | 88 | 1005.4 |
| 20260509081432 | 46 | 319 | 0.0 | 0.0 | 0.00 | 0.00 | 0.00 | 85 | 1005.0 |
| 20260509080930 | 47 | 319 | 0.0 | 0.0 | 0.00 | 0.00 | 0.00 | 84 | 1005.0 |
| 20260509080428 | 47 | 319 | 0.0 | 0.0 | 0.00 | 0.00 | 0.00 | 81 | 1005.3 |
| 20260509075926 | 47 | 319 | 0.0 | 0.0 | 0.00 | 0.00 | 0.00 | 81 | 1005.1 |
| 20260509075422 | 48 | 319 | 0.0 | 0.0 | 0.00 | 0.00 | 0.00 | 83 | 1004.9 |
| 20260509074920 | 48 | 319 | 0.0 | 0.0 | 0.00 | 0.00 | 0.00 | 82 | 1005.2 |
| 20260509074417 | 49 | 319 | 0.0 | 0.0 | 0.00 | 0.00 | 0.00 | 77 | 1004.9 |
| 20260509073913 | 49 | 319 | 0.0 | 0.0 | 0.00 | 0.00 | 0.00 | 76 | 1005.1 |